Location: Zapote
(9.9191°N, 84.0597°W)
Time: 13:52:45
(UTC-06:00)

Tiros 1 despin weight - All Passes

Search period start: 28 February 2021 00:00
Search period end: 10 March 2021 00:00
Orbit: 593 x 642 km, 48.2° (Epoch: 28 February)

Date Brightness Start Highest point End Pass type
(mag) Time Alt. Az. Time Alt. Az. Time Alt. Az.
28 Feb - 08:29:30 10° NW 08:34:10 88° NE 08:38:47 10° SE daylight
28 Feb - 20:42:50 10° S 20:46:32 26° SE 20:50:16 10° ENE night (unlit)
28 Feb - 22:24:18 10° W 22:27:56 24° NW 22:31:36 10° N night (unlit)
01 Mar - 07:05:34 10° N 07:08:58 20° NE 07:12:21 10° E daylight
01 Mar - 08:46:15 10° WNW 08:50:26 34° SW 08:54:37 10° SSE daylight
01 Mar - 20:58:21 10° SSW 21:02:47 72° SE 21:07:17 10° NE night (unlit)
02 Mar - 07:20:53 10° NNW 07:25:24 49° NE 07:29:52 10° SE daylight
02 Mar - 09:04:29 10° W 09:06:41 13° SW 09:08:53 10° SSW daylight
02 Mar - 19:35:24 10° SSE 19:37:50 14° SE 19:40:17 10° E visible
02 Mar - 21:14:55 10° WSW 21:19:07 41° NW 21:23:22 10° NNE night (unlit)
03 Mar - 05:58:18 10° NNE 06:00:03 12° NE 06:01:48 10° ENE daylight
03 Mar - 07:37:05 10° NW 07:41:42 62° SW 07:46:16 10° SSE daylight
03 Mar - 19:49:58 10° SSW 19:54:04 38° SE 19:58:14 10° ENE visible
03 Mar - 21:32:42 10° W 21:35:34 17° NW 21:38:27 10° N night (unlit)
04 Mar - 06:12:33 10° NNW 06:16:34 28° NE 06:20:34 10° ESE daylight
04 Mar - 07:54:15 10° WNW 07:57:57 23° SW 08:01:38 10° S daylight
04 Mar - 20:05:55 10° SW 20:10:21 75° NW 20:14:50 10° NE visible
05 Mar - 06:28:16 10° NW 06:32:56 74° NE 06:37:35 10° SE daylight
05 Mar - 18:41:59 10° S 18:45:22 21° SE 18:48:45 10° ENE visible
05 Mar - 20:22:54 10° WSW 20:26:42 28° NW 20:30:33 10° NNE visible
06 Mar - 05:04:38 10° N 05:07:42 17° NE 05:10:45 10° E visible
06 Mar - 06:44:49 10° WNW 06:49:13 41° SW 06:53:35 10° SSE daylight
06 Mar - 18:57:17 10° SSW 19:01:37 59° SE 19:06:00 10° NE visible
06 Mar - 20:41:48 10° WNW 20:43:13 11° NW 20:44:39 10° NNW visible
07 Mar - 05:19:43 10° NNW 05:24:08 41° NE 05:28:32 10° ESE visible
07 Mar - 07:02:36 10° W 07:05:28 16° SW 07:08:18 10° SSW daylight
07 Mar - 17:35:01 10° SSE 17:36:39 12° SE 17:38:18 10° ESE daylight
07 Mar - 19:13:39 10° SW 19:17:55 48° NW 19:22:14 10° NNE visible
08 Mar - 03:58:36 10° NE 03:58:45 10° NE 03:58:54 10° NE visible
08 Mar - 05:35:47 10° NW 05:40:27 75° SW 05:45:07 10° SE daylight
08 Mar - 17:48:59 10° SSW 17:52:54 31° SE 17:56:50 10° ENE daylight
08 Mar - 19:31:09 10° W 19:34:20 19° NW 19:37:31 10° N visible
09 Mar - 04:11:30 10° N 04:15:17 24° NE 04:19:05 10° ESE visible
09 Mar - 05:52:44 10° WNW 05:56:43 28° SW 06:00:41 10° S daylight
09 Mar - 18:04:45 10° SW 18:09:09 90° WNW 18:13:36 10° NE visible
